#timestamp,LO_Frequency,Hit,StdDev 
1648526415.7,286046999.8,N
1648526435.5,286047000.9,N
1648526455.3,286047002.5,N
1648526475.2,286047003.9,Y
1648526495.0,286047002.3,P
1648526495.9,286047002.3,N
1648526515.8,286046999.9,N
1648526535.6,286047000.7,N
1648526555.4,286047002.8,N
1648526575.3,286047000.3,N
1648526595.1,286047002.1,N
1648526615.8,286047003.6,Y
1648526635.7,286047002.6,P
1648526655.5,286047002.6,P
1648526675.4,286047002.7,P
1648526695.2,286047002.2,Y
1648526715.0,286046999.0,P
1648526715.9,286046999.0,N
1648526735.8,286046997.3,N
1648526755.6,286046999.0,N
1648526775.4,286046999.1,N
1648526795.3,286046998.0,N
1648526815.1,286046999.5,N
1648526835.9,286046997.3,N
1648526855.7,286046998.7,N
1648526875.5,286046997.1,N
1648526895.4,286046996.6,N
1648526915.2,286046996.5,N
1648526935.0,286046997.3,N
1648526936.0,286046997.3,N
1648526955.8,286046998.6,N
1648526975.6,286046997.1,N
1648526995.5,286046999.5,N
1648527015.3,286046999.5,N
1648527035.1,286046997.1,N
1648527055.9,286046997.8,N
1648527075.7,286046996.8,N
1648527095.6,286046997.2,N
1648527115.4,286046996.8,N
1648527135.2,286046998.1,N
1648527155.1,286046998.8,N
1648527156.0,286046998.8,N
1648527175.8,286046997.8,N
1648527195.7,286046996.0,Y
1648527215.5,286046995.4,P
1648527235.3,286046997.9,N
1648527255.2,286046995.6,P
1648527275.0,286046995.9,Y
1648527275.9,286046995.9,P
1648527295.7,286046996.8,P
1648527315.6,286046998.8,N
1648527335.4,286046998.1,N
1648527355.3,286047000.6,N
1648527375.1,286047000.4,N
1648527376.0,286047000.4,N
1648527395.8,286047001.0,N
1648527415.7,286046998.5,N
1648527435.5,286046996.6,N
1648527455.4,286046997.3,N
1648527475.2,286046999.3,N
1648527495.0,286046998.4,N
1648527495.9,286046998.4,N
1648527515.8,286047000.7,N
1648527535.6,286046998.5,N
1648527555.4,286046998.6,N
1648527575.3,286046998.1,N
1648527595.1,286046999.8,N
1648527615.9,286047000.5,N
1648527635.7,286046998.2,N
1648527655.5,286047000.8,N
1648527675.4,286047000.9,N
1648527695.2,286046998.2,N
1648527715.1,286047000.6,N
1648527716.0,286047000.6,N
1648527735.8,286046999.9,N
1648527755.6,286047002.4,N
1648527775.5,286047004.1,N
1648527795.3,286047004.4,N
1648527815.1,286047002.7,N
1648527835.9,286046999.9,N
1648527855.7,286047000.5,N
1648527875.6,286046999.9,N
1648527895.4,286046999.7,N
1648527915.2,286047000.3,N
1648527935.1,286046999.8,N
1648527936.0,286046999.8,N
1648527955.8,286047003.7,N
1648527975.7,286047001.8,N
1648527995.5,286047002.5,N
1648528015.3,286047002.0,N
1648528035.2,286047000.1,N
1648528055.0,286047000.1,N
1648528055.9,286047000.1,N
1648528075.7,286047000.8,N
1648528095.6,286047001.2,N
1648528115.4,286046999.1,N
1648528135.3,286046998.3,N
1648528155.1,286047000.6,N
1648528156.0,286047000.6,N
1648528175.8,286047001.7,N
1648528195.7,286047001.3,N
1648528215.5,286047002.6,N
1648528235.3,286047001.3,N
1648528255.2,286047001.9,N
1648528275.0,286047002.6,N
1648528275.9,286047002.6,N
1648528295.8,286047003.8,N
1648528315.6,286047003.8,N
1648528335.4,286047003.3,N
1648528355.3,286047001.4,N
1648528375.1,286047000.2,N
1648528395.9,286047000.3,N
1648528415.7,286047000.9,N
1648528435.5,286047002.5,N
1648528455.4,286047000.2,N
1648528475.2,286047000.3,N
1648528495.1,286047000.6,N
1648528496.0,286047000.6,N
1648528515.8,286047000.7,N
1648528535.6,286047000.6,N
1648528555.5,286047000.3,N
1648528575.3,286047000.4,N
1648528595.1,286046999.8,N
1648528615.9,286047001.6,N
1648528635.7,286047001.5,N
1648528655.6,286047002.2,N
1648528675.4,286047002.7,N
1648528695.2,286046999.9,N
1648528715.1,286047002.6,N
1648528716.0,286047002.6,N
1648528735.8,286047000.6,N
1648528755.7,286047000.4,N
1648528775.5,286046998.1,N
1648528795.3,286047000.0,N
1648528815.2,286047001.0,N
1648528835.9,286046999.8,N
1648528855.7,286047000.0,N
1648528875.6,286047000.9,N
1648528895.4,286047000.1,N
1648528915.3,286047002.3,N
1648528935.1,286047000.0,N
1648528955.9,286047000.2,N
1648528975.7,286047003.8,Y
1648528995.5,286047000.0,P
1648529015.4,286047000.9,N
1648529035.2,286047000.7,N
1648529055.0,286046998.7,Y
1648529055.9,286046998.7,P
1648529075.8,286046998.8,N
1648529095.6,286046998.1,N
1648529115.5,286047001.2,N
1648529135.3,286046998.8,N
1648529155.1,286047000.7,N
1648529175.9,286046999.3,N
1648529195.7,286047001.0,N
1648529215.6,286046999.0,N
1648529235.4,286046999.9,N
1648529255.2,286047000.3,N
1648529275.1,286047001.5,N
1648529276.0,286047001.5,N
1648529295.8,286047002.8,N
1648529315.7,286047000.3,N
1648529335.5,286046999.7,N
1648529355.3,286047001.9,N
1648529375.2,286046999.9,N
1648529395.0,286047000.2,N
1648529395.9,286047000.2,N
1648529415.7,286047000.3,N
1648529435.6,286046999.9,N
1648529455.4,286047000.3,N
1648529475.3,286046999.9,N
1648529495.1,286046999.7,N
1648529496.0,286046999.7,N
1648529515.8,286047003.9,Y
1648529535.7,286047003.6,P
1648529555.5,286047003.9,N
1648529575.3,286047001.3,N
1648529595.2,286047001.6,N
1648529615.0,286047001.7,N
1648529615.9,286047001.7,N
1648529635.8,286047003.8,Y
1648529655.6,286046999.7,P
1648529675.4,286047000.7,N
1648529695.3,286046998.7,N
1648529715.1,286046999.6,N
1648529735.9,286046999.5,N
1648529755.7,286046996.6,Y
1648529775.5,286046997.2,P
1648529795.4,286046999.0,N
1648529815.2,286046998.9,N
1648529835.0,286046996.7,Y
1648529836.0,286046996.7,P
1648529855.8,286047002.8,N
1648529875.6,286047001.1,N
1648529895.5,286046999.2,N
1648529915.3,286046999.3,N
1648529935.1,286046999.4,N
1648529955.9,286047000.8,N
1648529975.7,286046998.8,N
1648529995.5,286047000.8,N
